Weather History for Charlotte, MI

Change the Weather History Date:

Thursday, March 21, 2013

  Actual Average (KLAN) Record (KLAN)
Temperature  
Mean Temperature 22 °F 37 °F  
Max Temperature 31 °F 46 °F 86 °F (2012)
Min Temperature 13 °F 28 °F -11 °F (1875)
Degree Days  
Heating Degree Days 43 28  
Month to date heating degree days 672  
Since 1 July heating degree days 5607  
Cooling Degree Days 0 0  
Month to date cooling degree days 0  
Year to date cooling degree days 0  
Moisture  
Dew Point 19 °F    
Average Humidity 82    
Maximum Humidity 93    
Minimum Humidity 65    
Precipitation  
Precipitation 0.01 in 0.07 in 1.04 in (1886)
Month to date precipitation 1.30  
Year to date precipitation 4.42  
Snow  
Snow 0.00 in 0.20 in 8.20 in (1983)
Month to date snowfall 5.5  
Since 1 July snowfall 47.7  
Snow Depth -    
Sea Level Pressure  
Sea Level Pressure 29.88 in    
Wind  
Wind Speed 9 mph (West)    
Max Wind Speed 16 mph    
Max Gust Speed 24 mph    
Visibility 8 miles    
Events Snow    
T = Trace of Precipitation, MM = Missing Value Source: NWS Daily Summary

Daily Weather History Graph

Daily Weather History Graph

Search for Another Location

Airport:

Trip Planner

Search our weather history database for the weather conditions in past years. The results will help you decide how hot, cold, wet, or windy it might be!

Date:

Astronomy

Mar. 21, 2013 Rise Set
Actual Time 7:40 AM EDT 7:52 PM EDT
Civil Twilight 7:12 AM EDT 8:21 PM EDT
Nautical Twilight 6:39 AM EDT 8:54 PM EDT
Astronomical Twilight 6:05 AM EDT 9:28 PM EDT
Moon 2:15 PM EDT (3/21) 4:07 AM EDT (3/21)
Length of Visible Light 13h 08m
Length of Day
12h 12m
Waxing Gibbous, 68% of the Moon is Illuminated
Mar 21
Waxing Gibbous
Mar 27
Full
Apr 3
Last Quarter
Apr 10
New
Apr 18
First Quarter

Hourly Weather History & Observations

Time (EDT) Temp. Windchill Dew Point Humidity Pressure Visibility Wind Dir Wind Speed Gust Speed Precip Events Conditions
12:15 AM 13.6 °F 4.6 °F 11.7 °F 92% 29.91 in 10.0 mi WSW 5.8 mph - N/A   Clear
12:35 AM 13.5 °F 4.4 °F 11.7 °F 93% 29.91 in 10.0 mi West 5.8 mph - N/A   Scattered Clouds
12:55 AM 13.6 °F 4.6 °F 11.8 °F 93% 29.90 in 10.0 mi WSW 5.8 mph - N/A   Mostly Cloudy
1:35 AM 14.0 °F 3.9 °F 12.0 °F 92% 29.89 in 10.0 mi WSW 6.9 mph - N/A   Overcast
2:15 AM 14.9 °F 5.0 °F 12.7 °F 91% 29.89 in 10.0 mi WSW 6.9 mph - N/A   Overcast
2:35 AM 14.9 °F 6.1 °F 12.7 °F 91% 29.89 in 10.0 mi WSW 5.8 mph - N/A   Overcast
2:55 AM 14.9 °F 5.0 °F 12.7 °F 91% 29.89 in 10.0 mi WSW 6.9 mph - N/A   Overcast
3:15 AM 14.9 °F 6.1 °F 12.7 °F 91% 29.88 in 10.0 mi WSW 5.8 mph - N/A   Overcast
3:35 AM 15.4 °F 5.6 °F 13.1 °F 90% 29.87 in 7.0 mi WSW 6.9 mph - N/A   Overcast
3:55 AM 15.8 °F 7.2 °F 13.5 °F 90% 29.87 in 7.0 mi WSW 5.8 mph - N/A   Overcast
4:15 AM 15.8 °F 6.1 °F 13.6 °F 91% 29.86 in 7.0 mi WSW 6.9 mph - N/A   Overcast
4:35 AM 16.3 °F 7.8 °F 14.0 °F 90% 29.86 in 3.0 mi WSW 5.8 mph - N/A Snow Light Snow
4:55 AM 16.3 °F 7.8 °F 14.0 °F 90% 29.86 in 2.0 mi WSW 5.8 mph - N/A Snow Light Snow
5:15 AM 16.2 °F 9.0 °F 14.0 °F 91% 29.86 in 4.0 mi WSW 4.6 mph - N/A Snow Light Snow
5:35 AM 16.3 °F 6.7 °F 14.4 °F 92% 29.85 in 7.0 mi WSW 6.9 mph - N/A   Overcast
5:55 AM 16.7 °F 8.3 °F 14.7 °F 92% 29.85 in 7.0 mi WSW 5.8 mph - N/A   Overcast
6:15 AM 17.1 °F 8.7 °F 14.9 °F 91% 29.85 in 3.0 mi WSW 5.8 mph - N/A Snow Light Snow
6:35 AM 17.4 °F 9.1 °F 15.4 °F 92% 29.86 in 2.0 mi WSW 5.8 mph - N/A Snow Light Snow
6:55 AM 18.1 °F 8.9 °F 15.8 °F 91% 29.86 in 2.5 mi WSW 6.9 mph - N/A Snow Light Snow
7:15 AM 18.1 °F 7.9 °F 16.2 °F 92% 29.85 in 4.0 mi WSW 8.1 mph - N/A Snow Light Snow
7:35 AM 18.5 °F 8.4 °F 16.5 °F 92% 29.85 in 1.8 mi West 8.1 mph - N/A Snow Light Snow
7:55 AM 19.2 °F 9.3 °F 16.7 °F 90% 29.85 in 3.0 mi West 8.1 mph - N/A Snow Light Snow
8:15 AM 19.6 °F 8.9 °F 17.2 °F 91% 29.85 in 2.5 mi West 9.2 mph - N/A Snow Light Snow
8:55 AM 21.2 °F 10.1 °F 18.3 °F 89% 29.85 in 5.0 mi West 10.4 mph - N/A Snow Light Snow
9:15 AM 21.6 °F 11.3 °F 18.5 °F 88% 29.85 in 10.0 mi West 9.2 mph - N/A Snow Light Snow
9:35 AM 22.8 °F 12.9 °F 19.4 °F 87% 29.86 in 10.0 mi West 9.2 mph - N/A   Overcast
9:55 AM 23.5 °F 13.0 °F 19.6 °F 85% 29.86 in 10.0 mi WNW 10.4 mph - N/A Snow Light Snow
10:15 AM 24.8 °F 14.0 °F 20.3 °F 83% 29.86 in 10.0 mi West 11.5 mph 16.1 mph N/A Snow Light Snow
10:35 AM 25.7 °F 15.1 °F 20.7 °F 81% 29.86 in 10.0 mi West 11.5 mph 16.1 mph N/A   Overcast
10:55 AM 25.7 °F 16.4 °F 20.8 °F 82% 29.87 in 10.0 mi WNW 9.2 mph 18.4 mph N/A   Overcast
11:15 AM 25.7 °F 15.7 °F 20.1 °F 79% 29.87 in 10.0 mi WNW 10.4 mph 19.6 mph N/A   Overcast
11:35 AM 26.2 °F 14.7 °F 20.5 °F 79% 29.88 in 10.0 mi West 13.8 mph 17.3 mph N/A   Overcast
11:55 AM 27.7 °F 17.6 °F 21.4 °F 77% 29.88 in 10.0 mi WNW 11.5 mph 17.3 mph N/A   Overcast
12:15 PM 28.6 °F 19.3 °F 21.4 °F 74% 29.88 in 10.0 mi WNW 10.4 mph - N/A   Overcast
12:35 PM 30.0 °F 21.1 °F 21.9 °F 72% 29.88 in 10.0 mi WNW 10.4 mph - N/A Snow Light Snow
12:55 PM 30.6 °F 20.2 °F 21.7 °F 70% 29.87 in 10.0 mi West 13.8 mph - N/A   Overcast
1:15 PM 31.6 °F 22.6 °F 21.4 °F 66% 29.87 in 10.0 mi West 11.5 mph 17.3 mph N/A   Overcast
1:35 PM 30.6 °F 20.2 °F 20.1 °F 65% 29.87 in 10.0 mi West 13.8 mph 18.4 mph N/A   Overcast
1:55 PM 29.5 °F 20.4 °F 21.7 °F 73% 29.88 in 10.0 mi West 10.4 mph 19.6 mph N/A   Overcast
2:15 PM 30.0 °F 21.1 °F 22.8 °F 75% 29.88 in 7.0 mi West 10.4 mph - N/A Snow Light Snow
2:35 PM 30.0 °F 19.1 °F 22.6 °F 74% 29.88 in 10.0 mi West 15.0 mph 20.7 mph N/A   Overcast
2:55 PM 29.8 °F 21.5 °F 23.0 °F 76% 29.88 in 5.0 mi West 9.2 mph 17.3 mph N/A Snow Light Snow
3:15 PM 29.8 °F 18.4 °F 22.1 °F 73% 29.88 in 10.0 mi West 16.1 mph 21.9 mph N/A Snow Light Snow
3:35 PM 30.4 °F 20.5 °F 22.6 °F 73% 29.87 in 10.0 mi WNW 12.7 mph 18.4 mph N/A   Overcast
3:55 PM 31.1 °F 21.9 °F 22.5 °F 70% 29.87 in 10.0 mi West 11.5 mph 24.2 mph N/A   Overcast
4:15 PM 31.8 °F 21.0 °F 23.9 °F 73% 29.87 in 10.0 mi West 16.1 mph 24.2 mph N/A Snow Light Snow
4:35 PM 30.6 °F 19.8 °F 23.7 °F 76% 29.87 in 7.0 mi WNW 15.0 mph 21.9 mph 0.01 in Snow Light Snow
4:55 PM 30.2 °F 19.3 °F 23.4 °F 76% 29.87 in 10.0 mi West 15.0 mph 23.0 mph 0.01 in   Overcast
5:15 PM 29.7 °F 19.6 °F 23.0 °F 76% 29.88 in 10.0 mi WNW 12.7 mph 20.7 mph N/A   Overcast
5:35 PM 29.3 °F 17.7 °F 22.6 °F 76% 29.88 in 10.0 mi West 16.1 mph 21.9 mph N/A   Overcast
5:55 PM 29.3 °F 18.6 °F 22.5 °F 76% 29.88 in 10.0 mi West 13.8 mph 21.9 mph N/A Snow Light Snow
6:15 PM 29.1 °F 17.9 °F 22.5 °F 76% 29.89 in 10.0 mi West 15.0 mph 20.7 mph N/A   Overcast
6:35 PM 28.4 °F 18.5 °F 22.1 °F 77% 29.89 in 7.0 mi West 11.5 mph 18.4 mph N/A Snow Light Snow
6:55 PM 28.0 °F 17.5 °F 22.6 °F 80% 29.90 in 3.0 mi West 12.7 mph 18.4 mph N/A Snow Light Snow
7:15 PM 27.5 °F 17.4 °F 23.0 °F 83% 29.90 in 2.5 mi West 11.5 mph - N/A Snow Light Snow
7:35 PM 27.1 °F 17.5 °F 22.6 °F 83% 29.90 in 4.0 mi West 10.4 mph 16.1 mph N/A Snow Light Snow
7:55 PM 26.6 °F 15.2 °F 22.1 °F 83% 29.90 in 5.0 mi West 13.8 mph - N/A Snow Light Snow
8:15 PM 26.4 °F 15.5 °F 21.4 °F 81% 29.90 in 7.0 mi West 12.7 mph - N/A Snow Light Snow
8:35 PM 26.4 °F 17.3 °F 21.6 °F 82% 29.91 in 10.0 mi West 9.2 mph - N/A Snow Light Snow
8:55 PM 26.2 °F 16.4 °F 21.2 °F 81% 29.91 in 10.0 mi West 10.4 mph 16.1 mph N/A   Overcast
9:15 PM 26.1 °F 15.6 °F 21.0 °F 81% 29.91 in 10.0 mi West 11.5 mph 17.3 mph N/A   Overcast
9:35 PM 25.7 °F 14.6 °F 20.7 °F 81% 29.92 in 7.0 mi West 12.7 mph 17.3 mph N/A Snow Light Snow
9:55 PM 25.5 °F 16.2 °F 20.8 °F 82% 29.93 in 7.0 mi West 9.2 mph 16.1 mph N/A Snow Light Snow
10:15 PM 25.5 °F 16.2 °F 20.3 °F 81% 29.93 in 10.0 mi WNW 9.2 mph - N/A Snow Light Snow
10:35 PM 25.5 °F 16.9 °F 19.9 °F 79% 29.93 in 10.0 mi WNW 8.1 mph - N/A Snow Light Snow
10:55 PM 25.5 °F 16.9 °F 19.4 °F 78% 29.93 in 10.0 mi WNW 8.1 mph - N/A Snow Light Snow
11:15 PM 25.5 °F 18.7 °F 19.4 °F 78% 29.93 in 10.0 mi WNW 5.8 mph - N/A Snow Light Snow
11:35 PM 25.3 °F 15.3 °F 19.4 °F 78% 29.94 in 10.0 mi WNW 10.4 mph - N/A   Overcast
11:55 PM 25.3 °F 16.0 °F 19.0 °F 77% 29.94 in 10.0 mi West 9.2 mph - N/A   Overcast